,,Stat6,,Stat2,,Stat8,,Stat9,,Stat10,,Wind1,,Wind1,
time,status,PA1M_AVG,status,PR1M_SUM,status,RH1M_AVG,status,SR1M_AVG,status,TA1M_AVG,status,W1dAve1m,status,W1sAve1m,
2007-04-21, 00:00:00,VALID,918.075,VALID,0,VALID,100,VALID,-0.0509425,VALID,21.3396,VALID,321,VALID,0.289426,
2007-04-21, 00:01:00,VALID,918.095,VALID,0,VALID,100,VALID,0,VALID,21.3623,VALID,3,VALID,0.564732,
2007-04-21, 00:02:00,VALID,918.109,VALID,0,VALID,100,VALID,-0.0169808,VALID,21.3658,VALID,7,VALID,0.575149,
2007-04-21, 00:03:00,VALID,918.094,VALID,0,VALID,100,VALID,-0.0339617,VALID,21.3596,VALID,9,VALID,0.633956,
2007-04-21, 00:04:00,VALID,918.081,VALID,0,VALID,100,VALID,0,VALID,21.3393,VALID,11,VALID,0.493253,
2007-04-21, 00:05:00,VALID,918.068,VALID,0,VALID,100,VALID,-0.0169808,VALID,21.3363,VALID,18,VALID,0.611737,
2007-04-21, 00:06:00,VALID,918.054,VALID,0,VALID,100,VALID,0,VALID,21.3103,VALID,32,VALID,0.69351,
2007-04-21, 00:07:00,VALID,918.035,VALID,0,VALID,100,VALID,-0.0169808,VALID,21.2811,VALID,32,VALID,0.640443,
2007-04-21, 00:08:00,VALID,918.027,VALID,0,VALID,100,VALID,0,VALID,21.2519,VALID,32,VALID,0.576367,
2007-04-21, 00:09:00,VALID,917.99,VALID,0,VALID,100,VALID,0,VALID,21.2357,VALID,32,VALID,0.504179,
2007-04-21, 00:10:00,VALID,917.987,VALID,0,VALID,100,VALID,0,VALID,21.2,VALID,32,VALID,0.414595,
2007-04-21, 00:11:00,VALID,917.97,VALID,0,VALID,100,VALID,-0.0339617,VALID,21.181,VALID,32,VALID,0.364984,
2007-04-21, 00:12:00,VALID,917.956,VALID,0,VALID,100,VALID,-0.0679233,VALID,21.1483,VALID,32,VALID,0.0246394,
2007-04-21, 00:13:00,VALID,917.956,VALID,0,VALID,100,VALID,-0.0169808,VALID,21.1418,VALID,32,VALID,0,
2007-04-21, 00:14:00,VALID,917.961,VALID,0,VALID,100,VALID,-0.0169808,VALID,21.1451,VALID,32,VALID,0,
2007-04-21, 00:15:00,VALID,917.967,VALID,0,VALID,100,VALID,-0.0339617,VALID,21.1551,VALID,32,VALID,0,
2007-04-21, 00:16:00,VALID,917.971,VALID,0,VALID,100,VALID,-0.0509425,VALID,21.158,VALID,32,VALID,0,
2007-04-21, 00:17:00,VALID,917.96,VALID,0,VALID,100,VALID,0,VALID,21.1415,VALID,32,VALID,0.0771723,
2007-04-21, 00:18:00,VALID,917.967,VALID,0,VALID,100,VALID,-0.0169808,VALID,21.1451,VALID,32,VALID,0.119444,
2007-04-21, 00:19:00,VALID,917.956,VALID,0,VALID,100,VALID,-0.0509425,VALID,21.1386,VALID,32,VALID,0.244318,
2007-04-21, 00:20:00,VALID,917.951,VALID,0,VALID,100,VALID,-0.0339617,VALID,21.135,VALID,32,VALID,0.373547,
2007-04-21, 00:21:00,VALID,917.942,VALID,0,VALID,100,VALID,-0.0509425,VALID,21.1256,VALID,32,VALID,0.278646,
2007-04-21, 00:22:00,VALID,917.936,VALID,0,VALID,100,VALID,-0.0339617,VALID,21.1256,VALID,340,VALID,0.41246,
2007-04-21, 00:23:00,VALID,917.936,VALID,0,VALID,100,VALID,-0.0169808,VALID,21.1156,VALID,286,VALID,0.528516,
2007-04-21, 00:24:00,VALID,917.933,VALID,0,VALID,100,VALID,-0.0849042,VALID,21.1226,VALID,274,VALID,0.589658,
2007-04-21, 00:25:00,VALID,917.918,VALID,0,VALID,100,VALID,0,VALID,21.1188,VALID,268,VALID,0.579985,
2007-04-21, 00:26:00,VALID,917.914,VALID,0,VALID,100,VALID,-0.0169808,VALID,21.1191,VALID,268,VALID,0.601974,
2007-04-21, 00:27:00,VALID,917.913,VALID,0,VALID,100,VALID,-0.0339617,VALID,21.1058,VALID,268,VALID,0.640024,
2007-04-21, 00:28:00,VALID,917.909,VALID,0,VALID,100,VALID,0,VALID,21.0996,VALID,268,VALID,0.345898,
2007-04-21, 00:29:00,VALID,917.912,VALID,0,VALID,100,VALID,-0.0339617,VALID,21.0931,VALID,267,VALID,0.45397,
2007-04-21, 00:30:00,VALID,917.917,VALID,0,VALID,100,VALID,-0.0169808,VALID,21.0801,VALID,253,VALID,0.658789,
2007-04-21, 00:31:00,VALID,917.914,VALID,0,VALID,100,VALID,-0.0509425,VALID,21.0804,VALID,250,VALID,0.568788,
2007-04-21, 00:32:00,VALID,917.922,VALID,0,VALID,100,VALID,-0.0339617,VALID,21.0866,VALID,253,VALID,0.346294,
2007-04-21, 00:33:00,VALID,917.928,VALID,0,VALID,100,VALID,0,VALID,21.0731,VALID,238,VALID,0.663681,
2007-04-21, 00:34:00,VALID,917.918,VALID,0,VALID,100,VALID,0,VALID,21.0926,VALID,231,VALID,0.452363,
2007-04-21, 00:35:00,VALID,917.92,VALID,0,VALID,100,VALID,-0.0169808,VALID,21.1091,VALID,239,VALID,0.575945,
2007-04-21, 00:36:00,VALID,917.922,VALID,0,VALID,100,VALID,0,VALID,21.0928,VALID,250,VALID,0.686266,
2007-04-21, 00:37:00,VALID,917.917,VALID,0,VALID,100,VALID,0,VALID,21.0923,VALID,244,VALID,0.391959,
2007-04-21, 00:38:00,VALID,917.911,VALID,0,VALID,100,VALID,0,VALID,21.0893,VALID,244,VALID,0.390443,
2007-04-21, 00:39:00,VALID,917.922,VALID,0,VALID,100,VALID,0,VALID,21.1026,VALID,244,VALID,0.164971,
2007-04-21, 00:40:00,VALID,917.923,VALID,0,VALID,100,VALID,-0.0169808,VALID,21.1118,VALID,244,VALID,0.00507812,
2007-04-21, 00:41:00,VALID,917.923,VALID,0,VALID,100,VALID,0,VALID,21.1383,VALID,231,VALID,0.0806021,
2007-04-21, 00:42:00,VALID,917.928,VALID,0,VALID,100,VALID,-0.0509425,VALID,21.151,VALID,223,VALID,0,
2007-04-21, 00:43:00,VALID,917.928,VALID,0,VALID,100,VALID,0.0169808,VALID,21.1678,VALID,223,VALID,0,
2007-04-21, 00:44:00,VALID,917.916,VALID,0,VALID,100,VALID,0,VALID,21.19,VALID,223,VALID,0.0386814,
2007-04-21, 00:45:00,VALID,917.897,VALID,0,VALID,100,VALID,0,VALID,21.2065,VALID,223,VALID,0,
2007-04-21, 00:46:00,VALID,917.876,VALID,0,VALID,100,VALID,0,VALID,21.2122,VALID,223,VALID,0.000726744,
2007-04-21, 00:47:00,VALID,917.857,VALID,0,VALID,100,VALID,0,VALID,21.2219,VALID,223,VALID,0.00053267,
2007-04-21, 00:48:00,VALID,917.841,VALID,0,VALID,100,VALID,0,VALID,21.2319,VALID,223,VALID,0,
2007-04-21, 00:49:00,VALID,917.82,VALID,0,VALID,100,VALID,0,VALID,21.2424,VALID,223,VALID,0,
2007-04-21, 00:50:00,VALID,917.807,VALID,0,VALID,100,VALID,0,VALID,21.2195,VALID,223,VALID,0,
2007-04-21, 00:51:00,VALID,917.793,VALID,0,VALID,100,VALID,-0.0339617,VALID,21.2162,VALID,223,VALID,0.176153,
2007-04-21, 00:52:00,VALID,917.76,VALID,0,VALID,100,VALID,-0.0169808,VALID,21.213,VALID,223,VALID,0.172602,
2007-04-21, 00:53:00,VALID,917.745,VALID,0,VALID,100,VALID,-0.0169808,VALID,21.2,VALID,223,VALID,0.230015,
2007-04-21, 00:54:00,VALID,917.711,VALID,0,VALID,100,VALID,-0.0509425,VALID,21.2067,VALID,223,VALID,0.138207,
2007-04-21, 00:55:00,VALID,917.695,VALID,0,VALID,100,VALID,0.0339617,VALID,21.2132,VALID,223,VALID,0,
2007-04-21, 00:56:00,VALID,917.659,VALID,0,VALID,100,VALID,0,VALID,21.1967,VALID,223,VALID,0.265439,
2007-04-21, 00:57:00,VALID,917.65,VALID,0,VALID,100,VALID,0,VALID,21.203,VALID,221,VALID,0.311928,
2007-04-21, 00:58:00,VALID,917.638,VALID,0,VALID,100,VALID,0,VALID,21.213,VALID,196,VALID,0.649771,
2007-04-21, 00:59:00,VALID,917.637,VALID,0,VALID,100,VALID,0.0169808,VALID,21.2032,VALID,187,VALID,0.618823,
2007-04-21, 01:00:00,VALID,917.646,VALID,0,VALID,100,VALID,-0.0339617,VALID,21.203,VALID,187,VALID,0.679116,
2007-04-21, 01:01:00,VALID,917.641,VALID,0,VALID,100,VALID,-0.0339617,VALID,21.1965,VALID,187,VALID,0.294567,
2007-04-21, 01:02:00,VALID,917.643,VALID,0,VALID,100,VALID,-0.0339617,VALID,21.1962,VALID,183,VALID,0.51028,
2007-04-21, 01:03:00,VALID,917.634,VALID,0,VALID,100,VALID,-0.0339617,VALID,21.1967,VALID,166,VALID,0.760789,
2007-04-21, 01:04:00,VALID,917.626,VALID,0,VALID,100,VALID,-0.0169808,VALID,21.1967,VALID,178,VALID,0.5496,
2007-04-21, 01:05:00,VALID,917.613,VALID,0,VALID,100,VALID,-0.0169808,VALID,21.2002,VALID,159,VALID,0.717014,
2007-04-21, 01:06:00,VALID,917.59,VALID,0,VALID,100,VALID,0,VALID,21.1808,VALID,164,VALID,0.61875,
2007-04-21, 01:07:00,VALID,917.566,VALID,0,VALID,100,VALID,-0.0509425,VALID,21.1808,VALID,170,VALID,0.543826,
2007-04-21, 01:08:00,VALID,917.563,VALID,0,VALID,100,VALID,-0.0169808,VALID,21.1613,VALID,171,VALID,0.76582,
2007-04-21, 01:09:00,VALID,917.547,VALID,0,VALID,100,VALID,0,VALID,21.1515,VALID,182,VALID,0.484375,
2007-04-21, 01:10:00,VALID,917.546,VALID,0,VALID,100,VALID,-0.0339617,VALID,21.1313,VALID,170,VALID,0.493823,
2007-04-21, 01:11:00,VALID,917.537,VALID,0,VALID,100,VALID,-0.0169808,VALID,21.1383,VALID,176,VALID,0.668945,
2007-04-21, 01:12:00,VALID,917.532,VALID,0,VALID,100,VALID,-0.0339617,VALID,21.1221,VALID,187,VALID,0.365986,
2007-04-21, 01:13:00,VALID,917.522,VALID,0,VALID,100,VALID,-0.0169808,VALID,21.1158,VALID,182,VALID,0.55564,
2007-04-21, 01:14:00,VALID,917.506,VALID,0,VALID,100,VALID,-0.0339617,VALID,21.1023,VALID,176,VALID,0.596354,
2007-04-21, 01:15:00,VALID,917.501,VALID,0,VALID,100,VALID,-0.0169808,VALID,21.0921,VALID,178,VALID,0.381359,
2007-04-21, 01:16:00,VALID,917.484,VALID,0,VALID,100,VALID,-0.0679233,VALID,21.0893,VALID,177,VALID,0.348292,
2007-04-21, 01:17:00,VALID,917.484,VALID,0,VALID,100,VALID,0,VALID,21.0826,VALID,165,VALID,0.513867,
2007-04-21, 01:18:00,VALID,917.486,VALID,0,VALID,100,VALID,-0.0679233,VALID,21.0993,VALID,166,VALID,0.572545,
2007-04-21, 01:19:00,VALID,917.485,VALID,0,VALID,100,VALID,-0.0679233,VALID,21.1026,VALID,161,VALID,0.367969,
2007-04-21, 01:20:00,VALID,917.486,VALID,0,VALID,100,VALID,-0.0169808,VALID,21.1058,VALID,150,VALID,0.201562,
2007-04-21, 01:21:00,VALID,917.506,VALID,0,VALID,100,VALID,-0.0679233,VALID,21.1223,VALID,150,VALID,0.344097,
2007-04-21, 01:22:00,VALID,917.514,VALID,0,VALID,100,VALID,-0.0679233,VALID,21.1221,VALID,150,VALID,0.264453,
2007-04-21, 01:23:00,VALID,917.513,VALID,0,VALID,100,VALID,-0.0509425,VALID,21.1088,VALID,150,VALID,0.21224,
2007-04-21, 01:24:00,VALID,917.491,VALID,0,VALID,100,VALID,-0.0849042,VALID,21.1318,VALID,150,VALID,0.0532986,
2007-04-21, 01:25:00,VALID,917.487,VALID,0,VALID,100,VALID,-0.0679233,VALID,21.158,VALID,150,VALID,0.304878,
2007-04-21, 01:26:00,VALID,917.484,VALID,0,VALID,100,VALID,-0.0679233,VALID,21.167,VALID,150,VALID,0.246761,
2007-04-21, 01:27:00,VALID,917.459,VALID,0,VALID,100,VALID,-0.0679233,VALID,21.1902,VALID,80,VALID,0.40904,
2007-04-21, 01:28:00,VALID,917.444,VALID,0,VALID,100,VALID,-0.0679233,VALID,21.1935,VALID,60,VALID,0.641797,
2007-04-21, 01:29:00,VALID,917.424,VALID,0,VALID,100,VALID,-0.101885,VALID,21.1835,VALID,58,VALID,0.725586,
2007-04-21, 01:30:00,VALID,917.397,VALID,0,VALID,100,VALID,-0.0509425,VALID,21.1773,VALID,60,VALID,0.617374,
2007-04-21, 01:31:00,VALID,917.391,VALID,0,VALID,100,VALID,-0.0679233,VALID,21.1708,VALID,58,VALID,0.69122,
2007-04-21, 01:32:00,VALID,917.376,VALID,0,VALID,100,VALID,-0.0849042,VALID,21.1613,VALID,65,VALID,0.409375,
2007-04-21, 01:33:00,VALID,917.367,VALID,0,VALID,100,VALID,-0.0509425,VALID,21.1675,VALID,68,VALID,0.452947,
2007-04-21, 01:34:00,VALID,917.351,VALID,0,VALID,100,VALID,-0.0509425,VALID,21.1672,VALID,64,VALID,0.403773,
2007-04-21, 01:35:00,VALID,917.347,VALID,0,VALID,100,VALID,-0.101885,VALID,21.1808,VALID,52,VALID,0.619673,
2007-04-21, 01:36:00,VALID,917.318,VALID,0,VALID,100,VALID,-0.0679233,VALID,21.1965,VALID,47,VALID,0.506944,
2007-04-21, 01:37:00,VALID,917.29,VALID,0,VALID,100,VALID,-0.101885,VALID,21.2097,VALID,47,VALID,0.539608,
2007-04-21, 01:38:00,VALID,917.286,VALID,0,VALID,100,VALID,-0.0849042,VALID,21.2092,VALID,39,VALID,0.717797,
2007-04-21, 01:39:00,VALID,917.277,VALID,0,VALID,100,VALID,-0.0679233,VALID,21.1938,VALID,31,VALID,0.886458,
2007-04-21, 01:40:00,VALID,917.277,VALID,0,VALID,100,VALID,-0.0679233,VALID,21.1775,VALID,26,VALID,0.905717,
2007-04-21, 01:41:00,VALID,917.263,VALID,0,VALID,100,VALID,-0.0849042,VALID,21.1672,VALID,34,VALID,0.93045,
2007-04-21, 01:42:00,VALID,917.26,VALID,0,VALID,100,VALID,-0.0849042,VALID,21.1451,VALID,46,VALID,0.985305,
2007-04-21, 01:43:00,VALID,917.258,VALID,0,VALID,100,VALID,-0.0169808,VALID,21.1153,VALID,52,VALID,0.828311,
2007-04-21, 01:44:00,VALID,917.252,VALID,0,VALID,100,VALID,-0.0509425,VALID,21.0831,VALID,49,VALID,0.93967,
2007-04-21, 01:45:00,VALID,917.252,VALID,0,VALID,100,VALID,-0.0339617,VALID,21.0799,VALID,50,VALID,0.909412,
2007-04-21, 01:46:00,VALID,917.27,VALID,0,VALID,100,VALID,-0.101885,VALID,21.0571,VALID,53,VALID,0.815518,
2007-04-21, 01:47:00,VALID,917.29,VALID,0,VALID,100,VALID,-0.101885,VALID,21.0412,VALID,58,VALID,0.707126,
2007-04-21, 01:48:00,VALID,917.303,VALID,0,VALID,100,VALID,-0.0849042,VALID,21.0247,VALID,68,VALID,0.803354,
2007-04-21, 01:49:00,VALID,917.288,VALID,0,VALID,100,VALID,-0.101885,VALID,20.9955,VALID,73,VALID,0.46657,
2007-04-21, 01:50:00,VALID,917.273,VALID,0,VALID,100,VALID,-0.0509425,VALID,21.002,VALID,66,VALID,0.297061,
2007-04-21, 01:51:00,VALID,917.254,VALID,0,VALID,100,VALID,-0.0679233,VALID,21.0055,VALID,66,VALID,0.0633013,
2007-04-21, 01:52:00,VALID,917.24,VALID,0,VALID,100,VALID,-0.0849042,VALID,21.0052,VALID,66,VALID,0.0629112,
2007-04-21, 01:53:00,VALID,917.209,VALID,0,VALID,100,VALID,-0.101885,VALID,20.9987,VALID,66,VALID,0.0520833,
2007-04-21, 01:54:00,VALID,917.2,VALID,0,VALID,100,VALID,-0.0509425,VALID,20.9825,VALID,66,VALID,0.0670421,
2007-04-21, 01:55:00,VALID,917.187,VALID,0,VALID,100,VALID,-0.0679233,VALID,20.9852,VALID,40,VALID,0.670351,
2007-04-21, 01:56:00,VALID,917.171,VALID,0,VALID,100,VALID,-0.0849042,VALID,20.9787,VALID,40,VALID,0.556593,
2007-04-21, 01:57:00,VALID,917.161,VALID,0,VALID,100,VALID,-0.0509425,VALID,20.9657,VALID,42,VALID,0.613917,
2007-04-21, 01:58:00,VALID,917.128,VALID,0,VALID,100,VALID,-0.0509425,VALID,20.9492,VALID,52,VALID,0.582617,
2007-04-21, 01:59:00,VALID,917.12,VALID,0,VALID,100,VALID,-0.0339617,VALID,20.9495,VALID,52,VALID,0.621466,
2007-04-21, 02:00:00,VALID,917.101,VALID,0,VALID,100,VALID,-0.0509425,VALID,20.933,VALID,53,VALID,0.554869,
2007-04-21, 02:01:00,VALID,917.093,VALID,0,VALID,100,VALID,-0.0849042,VALID,20.9273,VALID,57,VALID,0.511433,
2007-04-21, 02:02:00,VALID,917.083,VALID,0,VALID,100,VALID,-0.0849042,VALID,20.9111,VALID,57,VALID,0.547637,
2007-04-21, 02:03:00,VALID,917.077,VALID,0,VALID,100,VALID,-0.0169808,VALID,20.8913,VALID,57,VALID,0.353051,
2007-04-21, 02:04:00,VALID,917.073,VALID,0,VALID,100,VALID,-0.0509425,VALID,20.8881,VALID,57,VALID,0.253049,
2007-04-21, 02:05:00,VALID,917.053,VALID,0,VALID,100,VALID,-0.0679233,VALID,20.8721,VALID,57,VALID,0.231517,
2007-04-21, 02:06:00,VALID,917.048,VALID,0,VALID,100,VALID,-0.0849042,VALID,20.8586,VALID,57,VALID,0.135352,
2007-04-21, 02:07:00,VALID,917.028,VALID,0,VALID,100,VALID,-0.0679233,VALID,20.8426,VALID,53,VALID,0.372142,
2007-04-21, 02:08:00,VALID,917.033,VALID,0,VALID,100,VALID,-0.0509425,VALID,20.8002,VALID,26,VALID,0.532552,
2007-04-21, 02:09:00,VALID,917.025,VALID,0,VALID,100,VALID,-0.0679233,VALID,20.7812,VALID,11,VALID,0.544408,
2007-04-21, 02:10:00,VALID,917.02,VALID,0,VALID,100,VALID,-0.0339617,VALID,20.758,VALID,360,VALID,0.672783,
2007-04-21, 02:11:00,VALID,917.015,VALID,0,VALID,100,VALID,-0.0509425,VALID,20.7545,VALID,359,VALID,0.439406,
2007-04-21, 02:12:00,VALID,917.029,VALID,0,VALID,100,VALID,-0.0339617,VALID,20.7483,VALID,357,VALID,0.570858,
2007-04-21, 02:13:00,VALID,917.042,VALID,0,VALID,100,VALID,-0.0849042,VALID,20.7358,VALID,357,VALID,0.366678,
2007-04-21, 02:14:00,VALID,917.042,VALID,0,VALID,100,VALID,-0.0679233,VALID,20.7255,VALID,357,VALID,0.281651,
2007-04-21, 02:15:00,VALID,917.036,VALID,0,VALID,100,VALID,-0.0849042,VALID,20.7188,VALID,357,VALID,0.191612,
2007-04-21, 02:16:00,VALID,917.035,VALID,0,VALID,100,VALID,-0.0849042,VALID,20.7096,VALID,4,VALID,0.31891,
2007-04-21, 02:17:00,VALID,917.033,VALID,0,VALID,100,VALID,-0.0339617,VALID,20.6866,VALID,9,VALID,0.34737,
2007-04-21, 02:18:00,VALID,917.022,VALID,0,VALID,100,VALID,-0.0509425,VALID,20.6636,VALID,9,VALID,0.304869,
2007-04-21, 02:19:00,VALID,917.011,VALID,0,VALID,100,VALID,-0.0339617,VALID,20.6801,VALID,9,VALID,0.138021,
2007-04-21, 02:20:00,VALID,917.002,VALID,0,VALID,100,VALID,-0.0169808,VALID,20.6771,VALID,9,VALID,0.208939,
2007-04-21, 02:21:00,VALID,916.992,VALID,0,VALID,100,VALID,0,VALID,20.6606,VALID,7,VALID,0.369591,
2007-04-21, 02:22:00,VALID,916.98,VALID,0,VALID,100,VALID,-0.0339617,VALID,20.6447,VALID,357,VALID,0.55545,
2007-04-21, 02:23:00,VALID,916.969,VALID,0,VALID,100,VALID,-0.0169808,VALID,20.6441,VALID,352,VALID,0.455469,
2007-04-21, 02:24:00,VALID,916.957,VALID,0,VALID,100,VALID,-0.0509425,VALID,20.6674,VALID,352,VALID,0.522436,
2007-04-21, 02:25:00,VALID,916.944,VALID,0,VALID,100,VALID,-0.0509425,VALID,20.6798,VALID,352,VALID,0.088742,
2007-04-21, 02:26:00,VALID,916.914,VALID,0,VALID,100,VALID,-0.0339617,VALID,20.6971,VALID,352,VALID,0.000571646,
2007-04-21, 02:27:00,VALID,916.913,VALID,0,VALID,100,VALID,-0.0849042,VALID,20.7163,VALID,347,VALID,0.229514,
2007-04-21, 02:28:00,VALID,916.903,VALID,0,VALID,100,VALID,-0.101885,VALID,20.729,VALID,331,VALID,0.125727,
2007-04-21, 02:29:00,VALID,916.896,VALID,0,VALID,100,VALID,0.0509425,VALID,20.7302,VALID,331,VALID,0.0797991,
2007-04-21, 02:30:00,VALID,916.872,VALID,0,VALID,100,VALID,0.0339617,VALID,20.7472,VALID,331,VALID,0.194285,
2007-04-21, 02:31:00,VALID,916.863,VALID,0,VALID,100,VALID,0.0169808,VALID,20.7567,VALID,331,VALID,0.281994,
2007-04-21, 02:32:00,VALID,916.842,VALID,0,VALID,100,VALID,0.0169808,VALID,20.7564,VALID,331,VALID,0.0107195,
2007-04-21, 02:33:00,VALID,916.824,VALID,0,VALID,100,VALID,0.0339617,VALID,20.7664,VALID,331,VALID,0.293527,
2007-04-21, 02:34:00,VALID,916.804,VALID,0,VALID,100,VALID,0.0509425,VALID,20.7726,VALID,336,VALID,0.223157,
2007-04-21, 02:35:00,VALID,916.786,VALID,0,VALID,100,VALID,0.0679233,VALID,20.7856,VALID,342,VALID,0.198933,
2007-04-21, 02:36:00,VALID,916.781,VALID,0,VALID,100,VALID,0.0339617,VALID,20.7956,VALID,355,VALID,0.252604,
2007-04-21, 02:37:00,VALID,916.778,VALID,0,VALID,100,VALID,0.0509425,VALID,20.8021,VALID,355,VALID,0,
2007-04-21, 02:38:00,VALID,916.784,VALID,0,VALID,100,VALID,0,VALID,20.8119,VALID,355,VALID,0,
2007-04-21, 02:39:00,VALID,916.792,VALID,0,VALID,100,VALID,0,VALID,20.8083,VALID,355,VALID,0.159702,
2007-04-21, 02:40:00,VALID,916.801,VALID,0,VALID,100,VALID,0.0169808,VALID,20.8446,VALID,355,VALID,0.123365,
2007-04-21, 02:41:00,VALID,916.797,VALID,0,VALID,100,VALID,0.0509425,VALID,20.8576,VALID,355,VALID,0.031808,
2007-04-21, 02:42:00,VALID,916.786,VALID,0,VALID,100,VALID,0.0169808,VALID,20.8605,VALID,355,VALID,0.012718,
2007-04-21, 02:43:00,VALID,916.785,VALID,0,VALID,100,VALID,0.0169808,VALID,20.8605,VALID,355,VALID,0,
2007-04-21, 02:44:00,VALID,916.765,VALID,0,VALID,100,VALID,0.0339617,VALID,20.8703,VALID,355,VALID,0.143229,
2007-04-21, 02:45:00,VALID,916.741,VALID,0,VALID,100,VALID,0.0169808,VALID,20.874,VALID,355,VALID,0.244474,
2007-04-21, 02:46:00,VALID,916.727,VALID,0,VALID,100,VALID,0.0169808,VALID,20.8733,VALID,355,VALID,0.154948,
2007-04-21, 02:47:00,VALID,916.706,VALID,0,VALID,100,VALID,0.0679233,VALID,20.8505,VALID,355,VALID,0.0983232,
2007-04-21, 02:48:00,VALID,916.687,VALID,0,VALID,100,VALID,0.101885,VALID,20.8476,VALID,355,VALID,0,
2007-04-21, 02:49:00,VALID,916.68,VALID,0,VALID,100,VALID,0.0509425,VALID,20.8343,VALID,355,VALID,0.0212573,
2007-04-21, 02:50:00,VALID,916.659,VALID,0,VALID,100,VALID,0.0509425,VALID,20.8243,VALID,355,VALID,0.0797602,
2007-04-21, 02:51:00,VALID,916.643,VALID,0,VALID,100,VALID,0.0339617,VALID,20.8246,VALID,355,VALID,0,
2007-04-21, 02:52:00,VALID,916.63,VALID,0,VALID,100,VALID,0.0509425,VALID,20.834,VALID,355,VALID,0,
2007-04-21, 02:53:00,VALID,916.622,VALID,0,VALID,100,VALID,0.0509425,VALID,20.8305,VALID,355,VALID,0,
2007-04-21, 02:54:00,VALID,916.583,VALID,0,VALID,100,VALID,0.101885,VALID,20.8308,VALID,355,VALID,0.0258557,
2007-04-21, 02:55:00,VALID,916.57,VALID,0,VALID,100,VALID,0.0339617,VALID,20.8019,VALID,355,VALID,0.166667,
2007-04-21, 02:56:00,VALID,916.556,VALID,0,VALID,100,VALID,0.0509425,VALID,20.7786,VALID,355,VALID,0,
2007-04-21, 02:57:00,VALID,916.549,VALID,0,VALID,100,VALID,0.0679233,VALID,20.7791,VALID,355,VALID,0.000976563,
2007-04-21, 02:58:00,VALID,916.555,VALID,0,VALID,100,VALID,0.0849042,VALID,20.7559,VALID,355,VALID,0,
2007-04-21, 02:59:00,VALID,916.555,VALID,0,VALID,100,VALID,0,VALID,20.7545,VALID,356,VALID,0.104167,
2007-04-21, 03:00:00,VALID,916.543,VALID,0,VALID,100,VALID,0,VALID,20.7247,VALID,356,VALID,0.25436,
2007-04-21, 03:01:00,VALID,916.533,VALID,0,VALID,100,VALID,0,VALID,20.7118,VALID,356,VALID,0.0256944,
2007-04-21, 03:02:00,VALID,916.528,VALID,0,VALID,100,VALID,-0.0339617,VALID,20.7123,VALID,356,VALID,0,
2007-04-21, 03:03:00,VALID,916.502,VALID,0,VALID,100,VALID,0.0169808,VALID,20.6958,VALID,356,VALID,0,
2007-04-21, 03:04:00,VALID,916.483,VALID,0,VALID,100,VALID,0,VALID,20.699,VALID,356,VALID,0,
2007-04-21, 03:05:00,VALID,916.466,VALID,0,VALID,100,VALID,0.0169808,VALID,20.7055,VALID,356,VALID,0,
2007-04-21, 03:06:00,VALID,916.442,VALID,0,VALID,100,VALID,0,VALID,20.7128,VALID,356,VALID,0.0053267,
2007-04-21, 03:07:00,VALID,916.441,VALID,0,VALID,100,VALID,-0.0339617,VALID,20.6955,VALID,356,VALID,0.0200076,
2007-04-21, 03:08:00,VALID,916.424,VALID,0,VALID,100,VALID,-0.0339617,VALID,20.702,VALID,356,VALID,0,
2007-04-21, 03:09:00,VALID,916.406,VALID,0,VALID,100,VALID,0,VALID,20.6988,VALID,356,VALID,0,
2007-04-21, 03:10:00,VALID,916.399,VALID,0,VALID,100,VALID,-0.0169808,VALID,20.7118,VALID,356,VALID,0,
2007-04-21, 03:11:00,VALID,916.398,VALID,0,VALID,100,VALID,-0.0509425,VALID,20.7185,VALID,326,VALID,0.139137,
2007-04-21, 03:12:00,VALID,916.388,VALID,0,VALID,100,VALID,-0.0339617,VALID,20.7123,VALID,278,VALID,0.109722,
2007-04-21, 03:13:00,VALID,916.388,VALID,0,VALID,100,VALID,0,VALID,20.6955,VALID,228,VALID,0.433321,
2007-04-21, 03:14:00,VALID,916.395,VALID,0,VALID,100,VALID,-0.0339617,VALID,20.6933,VALID,210,VALID,0.450581,
2007-04-21, 03:15:00,VALID,916.41,VALID,0,VALID,100,VALID,-0.0509425,VALID,20.6966,VALID,210,VALID,0.215732,
2007-04-21, 03:16:00,VALID,916.418,VALID,0,VALID,100,VALID,-0.0339617,VALID,20.6798,VALID,210,VALID,0.294207,
2007-04-21, 03:17:00,VALID,916.436,VALID,0,VALID,100,VALID,-0.0339617,VALID,20.6928,VALID,196,VALID,0.417783,
2007-04-21, 03:18:00,VALID,916.459,VALID,0,VALID,100,VALID,-0.0339617,VALID,20.6798,VALID,186,VALID,0.350142,
2007-04-21, 03:19:00,VALID,916.481,VALID,0,VALID,100,VALID,-0.0509425,VALID,20.6971,VALID,179,VALID,0.0932049,
2007-04-21, 03:20:00,VALID,916.506,VALID,0,VALID,100,VALID,-0.0679233,VALID,20.7031,VALID,179,VALID,0.0132473,
2007-04-21, 03:21:00,VALID,916.512,VALID,0,VALID,100,VALID,-0.0169808,VALID,20.7023,VALID,179,VALID,0,
2007-04-21, 03:22:00,VALID,916.524,VALID,0,VALID,100,VALID,-0.0169808,VALID,20.7085,VALID,179,VALID,0.0168679,
2007-04-21, 03:23:00,VALID,916.533,VALID,0,VALID,100,VALID,-0.0169808,VALID,20.729,VALID,179,VALID,0.229581,
2007-04-21, 03:24:00,VALID,916.53,VALID,0,VALID,100,VALID,-0.0169808,VALID,20.7223,VALID,179,VALID,0.0552455,
2007-04-21, 03:25:00,VALID,916.535,VALID,0,VALID,100,VALID,-0.0169808,VALID,20.7188,VALID,179,VALID,0.00285823,
2007-04-21, 03:26:00,VALID,916.552,VALID,0,VALID,100,VALID,-0.0169808,VALID,20.722,VALID,179,VALID,0.167696,
2007-04-21, 03:27:00,VALID,916.571,VALID,0,VALID,100,VALID,0,VALID,20.7026,VALID,177,VALID,0.446801,
2007-04-21, 03:28:00,VALID,916.581,VALID,0,VALID,100,VALID,-0.0169808,VALID,20.7026,VALID,176,VALID,0.548242,
2007-04-21, 03:29:00,VALID,916.608,VALID,0,VALID,100,VALID,0,VALID,20.6831,VALID,176,VALID,0.558594,
2007-04-21, 03:30:00,VALID,916.629,VALID,0,VALID,100,VALID,0,VALID,20.6701,VALID,168,VALID,0.498998,
2007-04-21, 03:31:00,VALID,916.657,VALID,0,VALID,100,VALID,-0.0339617,VALID,20.6476,VALID,156,VALID,0.277798,
2007-04-21, 03:32:00,VALID,916.673,VALID,0,VALID,100,VALID,-0.0169808,VALID,20.6254,VALID,146,VALID,0.49399,
2007-04-21, 03:33:00,VALID,916.681,VALID,0,VALID,100,VALID,0,VALID,20.5855,VALID,145,VALID,0.376598,
2007-04-21, 03:34:00,VALID,916.703,VALID,0,VALID,100,VALID,0,VALID,20.5855,VALID,145,VALID,0.297619,
2007-04-21, 03:35:00,VALID,916.717,VALID,0,VALID,100,VALID,0,VALID,20.5925,VALID,187,VALID,0.664608,
2007-04-21, 03:36:00,VALID,916.719,VALID,0,VALID,100,VALID,-0.0169808,VALID,20.569,VALID,177,VALID,0.959821,
2007-04-21, 03:37:00,VALID,916.726,VALID,0,VALID,100,VALID,-0.0169808,VALID,20.5533,VALID,177,VALID,0.816778,
2007-04-21, 03:38:00,VALID,916.727,VALID,0,VALID,100,VALID,-0.0169808,VALID,20.5335,VALID,179,VALID,0.52168,
2007-04-21, 03:39:00,VALID,916.73,VALID,0,VALID,100,VALID,-0.0169808,VALID,20.5173,VALID,166,VALID,0.667597,
2007-04-21, 03:40:00,VALID,916.734,VALID,0,VALID,100,VALID,0.0169808,VALID,20.5173,VALID,162,VALID,0.90346,